WA3YML Weather Reports


Display with metric or nautical units.
time (UTC)temp
F
wind
direction
speed
MPH
gust
MPH
rain 1hr
in
rain 24hr
in
rain mn
in
humidity
%
barometer
mb
20210614173005 77 176 1.0 6.0 0.00 0.01 0.01 57 1008.0
20210614171504 76 165 3.0 12.0 0.00 0.01 0.01 61 1008.1
20210614170005 76 261 2.0 7.0 0.00 0.01 0.01 55 1008.5
20210614164504 76 211 2.0 10.0 0.00 0.01 0.01 63 1008.7
20210614163005 75 228 2.0 12.0 0.00 0.01 0.01 66 1008.9
20210614161506 73 33 2.0 10.0 0.00 0.01 0.01 73 1008.9
20210614160004 70 220 1.0 3.0 0.00 0.01 0.01 84 1008.9
20210614154503 70 158 0.0 6.0 0.00 0.01 0.01 88 1008.9
20210614153004 68 188 1.0 6.0 0.00 0.01 0.01 96 1009.0
20210614151504 66 199 3.0 5.0 0.00 0.01 0.01 98 1009.2
20210614150004 65 207 1.0 5.0 0.00 0.01 0.01 99 1009.2
20210614144503 64 152 0.0 7.0 0.00 0.01 0.01 99 1009.1
20210614143004 63 180 1.0 6.0 0.00 0.01 0.01 98 1009.0
20210614141504 63 153 2.0 5.0 0.00 0.01 0.01 99 1009.0
20210614140003 63 175 2.0 9.0 0.00 0.01 0.01 98 1009.1
20210614134504 63 194 2.0 6.0 0.00 0.01 0.01 99 1009.2
20210614133003 63 204 1.0 6.0 0.01 0.01 0.01 98 1009.3
20210614131504 63 213 1.0 6.0 0.01 0.01 0.01 98 1009.6
20210614130004 62 169 2.0 3.0 0.01 0.01 0.01 98 1009.6
20210614124504 62 171 2.0 3.0 0.01 0.01 0.01 98 1009.5
20210614123004 62 191 1.0 5.0 0.00 0.00 0.00 98 1009.6
20210614121503 62 180 1.0 5.0 0.00 0.00 0.00 98 1009.6
20210614120004 62 243 1.0 6.0 0.00 0.00 0.00 98 1009.5
20210614114502 62 186 1.0 9.0 0.00 0.00 0.00 98 1009.4
20210614113003 62 181 1.0 7.0 0.00 0.00 0.00 98 1009.4
20210614111502 62 169 1.0 3.0 0.00 0.00 0.00 98 1009.4
20210614110003 62 209 1.0 3.0 0.00 0.00 0.00 97 1009.4
20210614104502 62 192 2.0 3.0 0.00 0.00 0.00 97 1009.4
20210614103003 62 177 1.0 5.0 0.00 0.00 0.00 97 1009.4
20210614101502 62 209 1.0 7.0 0.00 0.00 0.00 97 1009.4
20210614100002 62 186 1.0 5.0 0.00 0.00 0.00 97 1009.3
20210614094503 62 240 1.0 6.0 0.00 0.00 0.00 97 1009.2
20210614093003 62 164 2.0 9.0 0.00 0.00 0.00 97 1009.3
20210614091503 62 180 3.0 9.0 0.00 0.00 0.00 96 1009.4
20210614090002 63 156 3.0 6.0 0.00 0.00 0.00 96 1009.4
20210614084503 63 186 1.0 6.0 0.00 0.00 0.00 96 1009.4
20210614083003 63 164 1.0 5.0 0.00 0.00 0.00 96 1009.5
20210614081503 63 183 2.0 9.0 0.00 0.00 0.00 96 1009.6
20210614080003 63 182 0.0 5.0 0.00 0.00 0.00 96 1009.5
20210614074503 63 169 1.0 5.0 0.00 0.00 0.00 96 1009.5
20210614073003 63 153 2.0 6.0 0.00 0.00 0.00 96 1009.5
20210614071502 63 215 1.0 12.0 0.00 0.00 0.00 96 1009.6
20210614070003 64 184 2.0 10.0 0.00 0.00 0.00 96 1009.5
20210614064502 64 191 2.0 8.0 0.00 0.00 0.00 96 1009.6
20210614063003 64 171 2.0 15.0 0.00 0.00 0.00 96 1009.4
20210614061503 64 203 1.0 10.0 0.00 0.00 0.00 97 1009.7
20210614060003 64 154 3.0 13.0 0.00 0.00 0.00 97 1009.7
20210614054503 64 245 3.0 9.0 0.00 0.00 0.00 96 1010.0
20210614053003 65 173 2.0 10.0 0.00 0.00 0.00 96 1010.0
20210614051503 65 170 2.0 7.0 0.00 0.00 0.00 96 1009.7
20210614050003 65 173 3.0 12.0 0.00 0.00 0.00 96 1010.1
20210614044503 65 156 1.0 12.0 0.00 0.00 0.00 96 1010.5
20210614043003 65 90 0.0 7.0 0.00 0.00 0.00 96 1010.7
20210614041503 65 177 3.0 9.0 0.00 0.00 0.00 96 1011.0
20210614040002 65 170 2.0 5.0 0.00 0.00 0.00 96 1011.1
20210614034503 65 161 2.0 6.0 0.00 0.00 0.00 97 1011.5
20210614033003 65 165 1.0 3.0 0.00 0.00 0.00 96 1011.4
20210614031503 64 158 0.0 2.0 0.00 0.00 0.00 96 1011.9
20210614030003 65 158 0.0 2.0 0.00 0.00 0.00 96 1011.8
20210614024503 65 163 1.0 3.0 0.00 0.00 0.00 96 1011.7
20210614023003 65 167 1.0 5.0 0.00 0.00 0.00 96 1011.7
20210614021503 65 155 1.0 3.0 0.00 0.00 0.00 96 1011.5
20210614020003 65 171 2.0 5.0 0.00 0.00 0.00 95 1011.2
20210614014503 65 193 1.0 5.0 0.00 0.00 0.00 95 1011.2
20210614013003 65 155 2.0 5.0 0.00 0.00 0.00 95 1011.2
20210614011503 65 169 1.0 3.0 0.00 0.00 0.00 94 1011.2
20210614010003 66 162 1.0 3.0 0.00 0.00 0.00 94 1011.2
20210614004503 66 167 1.0 5.0 0.00 0.00 0.00 93 1010.9
20210614003003 66 151 2.0 5.0 0.00 0.00 0.00 93 1010.6
20210614001503 67 172 1.0 7.0 0.00 0.00 0.00 93 1010.6
20210614000004 67 162 3.0 7.0 0.00 0.00 0.00 92 1010.7
20210613234503 67 167 2.0 9.0 0.00 0.00 0.00 92 1010.4
20210613233003 68 158 1.0 7.0 0.00 0.00 0.00 91 1010.4
20210613231503 68 157 1.0 8.0 0.00 0.00 0.00 90 1010.5
20210613230003 69 175 2.0 7.0 0.00 0.00 0.00 89 1010.5
20210613224503 69 152 2.0 7.0 0.00 0.00 0.00 89 1010.7
20210613223003 69 148 1.0 6.0 0.00 0.00 0.00 89 1010.7
20210613221503 69 161 3.0 8.0 0.00 0.00 0.00 88 1010.9
20210613220003 70 161 3.0 7.0 0.00 0.00 0.00 87 1011.0
20210613214503 71 155 1.0 9.0 0.00 0.00 0.00 86 1010.8
20210613213003 71 175 1.0 12.0 0.00 0.00 0.00 85 1010.9
20210613211503 71 190 3.0 9.0 0.00 0.00 0.00 84 1011.5
20210613210004 71 188 2.0 7.0 0.00 0.00 0.00 84 1011.5
20210613204503 71 214 2.0 7.0 0.00 0.00 0.00 84 1011.5
20210613203004 72 109 3.0 10.0 0.00 0.00 0.00 84 1011.4
20210613201503 72 193 2.0 6.0 0.00 0.00 0.00 83 1011.6
20210613200003 71 275 2.0 7.0 0.00 0.00 0.00 84 1011.8
20210613194503 70 209 1.0 6.0 0.00 0.00 0.00 87 1011.9
20210613193004 69 174 1.0 7.0 0.00 0.00 0.00 88 1012.2
20210613191503 68 164 3.0 10.0 0.00 0.00 0.00 88 1012.5
20210613190004 69 164 1.0 5.0 0.00 0.00 0.00 89 1012.7
20210613184503 68 159 1.0 3.0 0.00 0.00 0.00 88 1012.6
20210613183004 68 263 1.0 6.0 0.00 0.00 0.00 90 1012.6
20210613181503 68 157 1.0 3.0 0.00 0.00 0.00 89 1012.4
20210613180004 69 146 0.0 3.0 0.00 0.00 0.00 89 1012.3
20210613174504 68 217 1.0 5.0 0.00 0.00 0.00 89 1012.2